Terminal Aerodrome Forecast
Issued by NWS

Home | Current Version | Previous Version | Text Only | Print | Product List | Glossary On
Versions: 1 2 3 4 5 6 7 8 9 10 11 12 13 14 15 16 17 18 19 20 21 22 23 24 25 26
000
FTUS43 KILX 281134
TAFDEC
TAF
KDEC 281134Z 2812/2912 18014KT P6SM VCSH SCT025 BKN120
     FM281500 19014G22KT P6SM VCSH SCT035 BKN120
     FM281900 19014G22KT P6SM SCT035 BKN120
     FM290200 20011KT P6SM BKN120=

USA.gov is the U.S. government's official web portal to all federal, state and local government web resources and services.